Weather History for New Haven, CT

Change the Weather History Date:

Saturday, May 3, 2014

  Actual Average Record
Temperature  
Mean Temperature 54 °F -  
Max Temperature 66 °F 62 °F 82 °F (2001)
Min Temperature 43 °F 45 °F 35 °F (2005)
Degree Days  
Heating Degree Days 12    
Growing Degree Days 4 (Base 50)    
Moisture  
Dew Point 42 °F    
Average Humidity 61    
Maximum Humidity 86    
Minimum Humidity 39    
Precipitation  
Precipitation 0.00 in - - ()
Sea Level Pressure  
Sea Level Pressure 29.81 in    
Wind  
Wind Speed 2 mph (SSW)    
Max Wind Speed 12 mph    
Max Gust Speed -    
Visibility 10 miles    
Events      
Averages and records for this station are not official NWS values.
T = Trace of Precipitation, MM = Missing Value Source: NWS Daily Summary

Daily Weather History Graph

Daily Weather History Graph

Search for Another Location

Airport:

Trip Planner

Search our weather history database for the weather conditions in past years. The results will help you decide how hot, cold, wet, or windy it might be!

Date:

Astronomy

May. 03, 2014 Rise Set
Actual Time 5:46 AM EDT 7:50 PM EDT
Civil Twilight 5:16 AM EDT 8:21 PM EDT
Nautical Twilight 4:39 AM EDT 8:58 PM EDT
Astronomical Twilight 3:59 AM EDT 9:38 PM EDT
Moon 9:13 AM EDT (5/3) 11:55 PM EDT (5/3)
Length of Visible Light 15h 04m
Length of Day
14h 04m
Waxing Crescent, 19% of the Moon is Illuminated
May 3
Waxing Crescent
May 6
First Quarter
May 14
Full
May 21
Last Quarter
May 28
New

Hourly Weather History & Observations

Time (EDT) Temp. Dew Point Humidity Pressure Visibility Wind Dir Wind Speed Gust Speed Precip Events Conditions
12:53 AM 48.9 °F 39.0 °F 69% 29.83 in 10.0 mi Calm Calm - N/A   Clear
1:53 AM 48.0 °F 39.9 °F 74% 29.84 in 10.0 mi Calm Calm - N/A   Clear
2:53 AM 46.0 °F 39.9 °F 79% 29.84 in 10.0 mi Calm Calm - N/A   Clear
3:53 AM 45.0 °F 39.9 °F 82% 29.84 in 10.0 mi Calm Calm - N/A   Clear
4:53 AM 44.1 °F 39.0 °F 82% 29.85 in 10.0 mi Calm Calm - N/A   Clear
5:53 AM 43.0 °F 39.0 °F 86% 29.87 in 10.0 mi Calm Calm - N/A   Clear
6:53 AM 46.9 °F 43.0 °F 86% 29.88 in 10.0 mi Calm Calm - N/A   Scattered Clouds
7:53 AM 54.0 °F 41.0 °F 62% 29.88 in 10.0 mi Calm Calm - N/A   Scattered Clouds
8:53 AM 57.9 °F 39.0 °F 49% 29.88 in 10.0 mi Calm Calm - N/A   Partly Cloudy
9:53 AM 62.1 °F 39.9 °F 44% 29.85 in 10.0 mi SSW 5.8 mph - N/A   Partly Cloudy
10:53 AM 61.0 °F 42.1 °F 50% 29.85 in 10.0 mi SSW 5.8 mph - N/A   Scattered Clouds
11:53 AM 63.0 °F 39.0 °F 41% 29.83 in 10.0 mi Calm Calm - N/A   Partly Cloudy
12:53 PM 64.9 °F 39.0 °F 39% 29.81 in 10.0 mi SSW 9.2 mph - N/A   Partly Cloudy
1:53 PM 64.0 °F 43.0 °F 46% 29.79 in 10.0 mi South 9.2 mph - N/A   Partly Cloudy
2:53 PM 64.0 °F 41.0 °F 43% 29.78 in 10.0 mi South 11.5 mph - N/A   Partly Cloudy
3:53 PM 64.4 °F 39.2 °F 40% 29.76 in 10.0 mi SSE 10.4 mph - N/A   Scattered Clouds
4:53 PM 63.0 °F 44.1 °F 50% 29.76 in 10.0 mi SSW 8.1 mph - N/A   Scattered Clouds
5:53 PM 61.0 °F 43.0 °F 52% 29.76 in 10.0 mi SSW 8.1 mph - N/A   Overcast
6:53 PM 60.1 °F 43.0 °F 53% 29.75 in 10.0 mi Variable 4.6 mph - N/A   Mostly Cloudy
7:53 PM 57.9 °F 44.1 °F 60% 29.76 in 10.0 mi WSW 3.5 mph - N/A   Scattered Clouds
8:53 PM 60.1 °F 46.0 °F 60% 29.79 in 10.0 mi Variable 3.5 mph - N/A   Overcast
9:53 PM 57.9 °F 45.0 °F 62% 29.78 in 10.0 mi Calm Calm - 0.00 in   Mostly Cloudy
10:53 PM 52.0 °F 45.0 °F 77% 29.75 in 10.0 mi Calm Calm - N/A   Clear
11:53 PM 54.0 °F 46.9 °F 77% 29.75 in 10.0 mi South 6.9 mph - N/A   Clear